• In Portugal
  • List of Countries
  • For 7 days
  • Water Temperature
  • Satellite Maps
  • Weather Map
  • Weather Widgets
  • user-avatar
    Login

    Hourly Weather Sumgayit

    Today, 26 May, Saturday

    Time Temperature Precipitation Wind Pressure Humidity
    00:00 +25°C° 0 mm 1 mps 735 mmHg 39%
    01:00 +25°C° 0 mm 1 mps 735 mmHg 40%
    02:00 +24°C° 0 mm 2 mps 734 mmHg 41%
    03:00 +24°C° 0 mm 2 mps 734 mmHg 43%
    04:00 +24°C° 0 mm 2 mps 734 mmHg 42%
    05:00 +25°C° 0 mm 2 mps 734 mmHg 42%
    06:00 +25°C° 0 mm 2 mps 734 mmHg 41%
    07:00 +26°C° 0 mm 3 mps 735 mmHg 40%
    08:00 +28°C° 0 mm 3 mps 735 mmHg 39%
    09:00 +29°C° 0 mm 4 mps 735 mmHg 38%
    10:00 +29°C° 0 mm 4 mps 735 mmHg 37%
    11:00 +30°C° 0 mm 4 mps 735 mmHg 37%
    12:00 +32°C° 0 mm 4 mps 736 mmHg 36%
    13:00 +32°C° 0.1 mm 4 mps 736 mmHg 37%
    14:00 +32°C° 0.1 mm 5 mps 736 mmHg 37%
    15:00 +32°C° 0.1 mm 5 mps 736 mmHg 37%
    16:00 +30°C° 0.1 mm 7 mps 736 mmHg 43%
    17:00 +29°C° 0.1 mm 9 mps 736 mmHg 49%
    18:00 +27°C° 0.1 mm 11 mps 736 mmHg 56%
    19:00 +26°C° 0 mm 12 mps 737 mmHg 58%
    20:00 +23°C° 0 mm 13 mps 738 mmHg 60%
    21:00 +22°C° 0 mm 14 mps 738 mmHg 63%
    22:00 +22°C° 0.3 mm 14 mps 739 mmHg 63%
    23:00 +20°C° 0.3 mm 14 mps 740 mmHg 63%

    Tomorrow, 27 May, Sunday

    Time Temperature Precipitation Wind Pressure Humidity
    00:00 +19°C° 0.3 mm 14 mps 740 mmHg 62%
    01:00 +19°C° 0.3 mm 14 mps 741 mmHg 60%
    02:00 +19°C° 0.3 mm 15 mps 741 mmHg 57%
    03:00 +18°C° 0.3 mm 15 mps 742 mmHg 55%
    04:00 +18°C° 0.1 mm 15 mps 742 mmHg 55%
    05:00 +18°C° 0.1 mm 14 mps 743 mmHg 55%
    06:00 +18°C° 0.1 mm 14 mps 744 mmHg 55%
    07:00 +18°C° 0.2 mm 14 mps 745 mmHg 54%
    08:00 +19°C° 0.2 mm 13 mps 745 mmHg 53%
    09:00 +19°C° 0.2 mm 13 mps 746 mmHg 52%
    10:00 +19°C° 0 mm 12 mps 746 mmHg 53%
    11:00 +19°C° 0 mm 11 mps 747 mmHg 53%
    12:00 +19°C° 0 mm 10 mps 747 mmHg 54%
    13:00 +19°C° 0 mm 9 mps 747 mmHg 54%
    14:00 +18°C° 0 mm 9 mps 747 mmHg 54%
    15:00 +18°C° 0 mm 8 mps 747 mmHg 54%
    16:00 +18°C° 0 mm 7 mps 747 mmHg 53%
    17:00 +18°C° 0 mm 7 mps 747 mmHg 52%
    18:00 +17°C° 0 mm 6 mps 747 mmHg 51%
    19:00 +17°C° 0 mm 5 mps 747 mmHg 51%
    20:00 +18°C° 0 mm 4 mps 747 mmHg 50%
    21:00 +17°C° 0 mm 2 mps 747 mmHg 50%
    22:00 +17°C° 0 mm 2 mps 747 mmHg 50%
    23:00 +17°C° 0 mm 2 mps 746 mmHg 50%

    Day after tomorrow, 28 May, Monday

    Time Temperature Precipitation Wind Pressure Humidity
    00:00 +18°C° 0 mm 1 mps 746 mmHg 51%
    01:00 +16°C° 0 mm 2 mps 746 mmHg 52%
    02:00 +16°C° 0 mm 2 mps 745 mmHg 53%
    03:00 +16°C° 0 mm 2 mps 745 mmHg 54%
    04:00 +17°C° 0 mm 3 mps 745 mmHg 53%
    05:00 +17°C° 0 mm 4 mps 744 mmHg 52%
    06:00 +18°C° 0 mm 4 mps 744 mmHg 51%
    07:00 +19°C° 0 mm 5 mps 744 mmHg 48%
    08:00 +20°C° 0 mm 6 mps 744 mmHg 45%
    09:00 +21°C° 0 mm 6 mps 743 mmHg 42%
    10:00 +23°C° 0 mm 6 mps 743 mmHg 40%
    11:00 +24°C° 0 mm 6 mps 742 mmHg 39%
    12:00 +26°C° 0 mm 6 mps 742 mmHg 37%
    13:00 +26°C° 0 mm 6 mps 742 mmHg 38%
    14:00 +27°C° 0 mm 6 mps 741 mmHg 39%
    15:00 +27°C° 0 mm 6 mps 741 mmHg 40%
    16:00 +26°C° 0 mm 6 mps 740 mmHg 43%
    17:00 +25°C° 0 mm 5 mps 740 mmHg 47%
    18:00 +25°C° 0 mm 5 mps 740 mmHg 50%
    19:00 +23°C° 0 mm 4 mps 740 mmHg 53%
    20:00 +22°C° 0 mm 3 mps 741 mmHg 55%
    21:00 +21°C° 0 mm 2 mps 741 mmHg 58%
    22:00 +21°C° 0 mm 2 mps 741 mmHg 58%
    23:00 +21°C° 0 mm 2 mps 741 mmHg 59%

    29 May, Tuesday

    Time Temperature Precipitation Wind Pressure Humidity
    00:00 +21°C° 0 mm 2 mps 741 mmHg 60%
    01:00 +21°C° 0 mm 3 mps 741 mmHg 61%
    02:00 +20°C° 0 mm 4 mps 741 mmHg 63%
    03:00 +20°C° 0 mm 6 mps 741 mmHg 65%
    04:00 +20°C° 0 mm 7 mps 742 mmHg 63%
    05:00 +20°C° 0 mm 8 mps 742 mmHg 62%
    06:00 +21°C° 0 mm 9 mps 742 mmHg 61%
    07:00 +22°C° 0 mm 9 mps 743 mmHg 57%
    08:00 +22°C° 0 mm 9 mps 743 mmHg 54%
    09:00 +23°C° 0 mm 9 mps 743 mmHg 50%
    10:00 +24°C° 0 mm 9 mps 743 mmHg 50%
    11:00 +24°C° 0 mm 9 mps 743 mmHg 49%
    12:00 +26°C° 0 mm 9 mps 743 mmHg 48%
    13:00 +24°C° 0 mm 9 mps 743 mmHg 49%
    14:00 +24°C° 0 mm 9 mps 743 mmHg 50%
    15:00 +24°C° 0 mm 9 mps 743 mmHg 50%
    16:00 +23°C° 0 mm 9 mps 743 mmHg 52%
    17:00 +22°C° 0 mm 8 mps 743 mmHg 54%
    18:00 +22°C° 0 mm 8 mps 743 mmHg 57%
    19:00 +21°C° 0 mm 7 mps 743 mmHg 58%
    20:00 +21°C° 0 mm 6 mps 744 mmHg 59%
    21:00 +20°C° 0 mm 5 mps 744 mmHg 60%
    22:00 +20°C° 0 mm 5 mps 744 mmHg 59%
    23:00 +19°C° 0 mm 5 mps 744 mmHg 59%

    30 May, Wednesday

    Time Temperature Precipitation Wind Pressure Humidity
    00:00 +19°C° 0 mm 4 mps 744 mmHg 58%
    01:00 +19°C° 0 mm 4 mps 743 mmHg 59%
    02:00 +19°C° 0 mm 4 mps 743 mmHg 59%
    03:00 +19°C° 0 mm 4 mps 743 mmHg 59%
    04:00 +19°C° 0 mm 4 mps 743 mmHg 58%
    05:00 +19°C° 0 mm 4 mps 743 mmHg 57%
    06:00 +19°C° 0 mm 3 mps 743 mmHg 56%
    07:00 +20°C° 0 mm 3 mps 743 mmHg 50%
    08:00 +21°C° 0 mm 3 mps 743 mmHg 44%
    09:00 +22°C° 0 mm 3 mps 743 mmHg 39%
    10:00 +24°C° 0 mm 3 mps 742 mmHg 36%
    11:00 +25°C° 0 mm 4 mps 742 mmHg 33%
    12:00 +26°C° 0 mm 4 mps 742 mmHg 30%
    13:00 +26°C° 0 mm 5 mps 741 mmHg 30%
    14:00 +26°C° 0 mm 5 mps 741 mmHg 29%
    15:00 +27°C° 0 mm 5 mps 740 mmHg 29%
    16:00 +26°C° 0 mm 5 mps 740 mmHg 30%
    17:00 +25°C° 0 mm 5 mps 740 mmHg 32%
    18:00 +25°C° 0 mm 5 mps 739 mmHg 34%
    19:00 +23°C° 0 mm 4 mps 740 mmHg 37%
    20:00 +23°C° 0 mm 4 mps 740 mmHg 40%
    21:00 +22°C° 0 mm 3 mps 740 mmHg 43%
    22:00 +22°C° 0 mm 3 mps 739 mmHg 44%
    23:00 +21°C° 0 mm 2 mps 739 mmHg 45%

    31 May, Thursday

    Time Temperature Precipitation Wind Pressure Humidity
    00:00 +21°C° 0 mm 2 mps 738 mmHg 47%
    01:00 +21°C° 0 mm 2 mps 738 mmHg 47%
    02:00 +21°C° 0 mm 2 mps 737 mmHg 47%
    03:00 +21°C° 0 mm 2 mps 737 mmHg 47%
    04:00 +21°C° 0 mm 2 mps 737 mmHg 47%
    05:00 +23°C° 0 mm 2 mps 737 mmHg 47%
    06:00 +23°C° 0 mm 2 mps 737 mmHg 46%
    07:00 +24°C° 0 mm 2 mps 737 mmHg 43%
    08:00 +25°C° 0 mm 2 mps 737 mmHg 40%
    09:00 +27°C° 0 mm 3 mps 737 mmHg 37%
    10:00 +28°C° 0 mm 3 mps 736 mmHg 36%
    11:00 +29°C° 0 mm 4 mps 736 mmHg 34%
    12:00 +30°C° 0 mm 4 mps 736 mmHg 32%
    13:00 +30°C° 0 mm 5 mps 735 mmHg 33%
    14:00 +30°C° 0 mm 5 mps 735 mmHg 34%
    15:00 +30°C° 0 mm 5 mps 734 mmHg 35%
    16:00 +30°C° 0 mm 5 mps 734 mmHg 37%
    17:00 +29°C° 0 mm 5 mps 734 mmHg 39%
    18:00 +28°C° 0 mm 5 mps 734 mmHg 41%
    19:00 +27°C° 0 mm 4 mps 734 mmHg 45%
    20:00 +27°C° 0 mm 3 mps 734 mmHg 48%
    21:00 +26°C° 0 mm 2 mps 734 mmHg 51%
    22:00 +25°C° 0 mm 2 mps 734 mmHg 51%
    23:00 +25°C° 0 mm 2 mps 733 mmHg 51%
    Show more